Location: Burbank
(38.7788°N, 114.0429°W)
Time: 14:15:35
(UTC+00:00)

Injun/Solrad 3 - Pass Details

Date: 17 May 2026
Orbit: 867 x 989 km, 66.8° (Epoch: 8 June)

Event Time Altitude Azimuth Distance (km) Brightness Sun altitude
Rises 22:44:25 0° 217° (SW) 3,497 11.4 44.5°
Reaches altitude 10° 22:46:54 10° 221° (SW) 2,577 11.0 44.1°
Maximum altitude 22:52:49 61° 302° (WNW) 1,043 9.5 42.9°
Drops below altitude 10° 22:58:59 10° 22° (NNE) 2,676 10.2 41.7°
Sets 23:01:37 0° 26° (NNE) 3,643 10.7 41.2°
